Location: Ostrava
(49.8330°N, 18.2830°E)
Time: 19:37:04
(UTC+02:00)

Cosmos 1400 Rocket - Visible Passes

Search period start: 22 May 2015 00:00
Search period end: 01 June 2015 00:00
Orbit: 527 x 574 km, 81.2° (Epoch: 21 May)

Date Brightness Start Highest point End Pass type
(mag) Time Alt. Az. Time Alt. Az. Time Alt. Az.
22 May 4.9 01:01:55 10° NW 01:04:39 17° W 01:05:27 16° WSW visible
22 May 3.1 23:20:10 10° N 23:24:16 57° ENE 23:25:39 36° SE visible
23 May 5.0 00:57:58 10° NW 01:00:26 15° W 01:01:23 14° WSW visible
23 May 3.0 23:15:59 10° N 23:20:06 63° ENE 23:21:35 36° SE visible
24 May 5.1 00:54:02 10° NW 00:56:14 14° W 00:57:19 13° WSW visible
24 May 2.9 23:11:49 10° N 23:15:57 70° ENE 23:17:32 35° SSE visible
25 May 5.2 00:50:09 10° WNW 00:52:01 12° W 00:53:16 11° WSW visible
25 May 2.8 23:07:38 10° N 23:11:47 78° ENE 23:13:30 33° SSE visible
26 May 5.4 00:46:25 10° WNW 00:47:47 11° W 00:48:58 10° WSW visible
26 May 5.2 21:29:09 10° NE 21:30:11 11° ENE 21:31:24 10° ENE visible
26 May 2.8 23:03:28 10° NNW 23:07:36 86° ENE 23:09:28 31° SSE visible
27 May 5.5 00:43:07 10° WNW 00:43:34 10° W 00:43:49 10° W visible
27 May 5.2 21:24:35 10° NE 21:26:05 12° ENE 21:27:44 10° E visible
27 May 2.8 22:59:18 10° NNW 23:03:25 86° W 23:05:27 29° S visible
28 May 5.1 21:20:08 10° NNE 21:21:58 13° ENE 21:23:57 10° E visible
28 May 2.9 22:55:08 10° NNW 22:59:14 77° W 23:01:27 26° S visible
29 May 3.0 22:50:58 10° NNW 22:55:03 70° W 22:57:27 23° S visible
30 May 3.1 22:46:48 10° NNW 22:50:51 62° W 22:53:29 20° S visible
31 May 3.3 22:42:38 10° NNW 22:46:39 56° W 22:49:31 17° S visible
